Flag for U.S.A. Weather past 2 weeks in Abilene, Texas, U.S.A.

Now
80 °F

Sunny.


Feels Like: 80 °F
Forecast: 64 / 85 °F
Wind: 12 mph from Southeast

Location: Abilene Regional Airport

Current Time: Mar 30, 2015 at 7:17:26 PM

Latest Report: Mar 30, 2015 at 6:52 PM


Visibility: 10 mi

Pressure: 29.97 "Hg

Humidity: 44%

Dew point: 56 °F

Location of AbileneLocation

Historic Weather in Abilene — Graph

°F

Abilene temperature yesterday

Maximum temperature yesterday: 90 °F (at 4:52 PM)
Minimum temperature yesterday: 63 °F (at 7:52 AM)
Average temperature yesterday: 73 °F

Past Weeks' High & Low Weather Summary

 TemperatureHumidityPressure
High90 °F (Mar 29, 4:52 PM)97% (Mar 20, 5:52 AM)30.26 "Hg (Mar 20, 5:52 AM)
Low43 °F (Mar 26, 7:52 AM)16% (Mar 24, 3:52 PM)29.68 "Hg (Mar 25, 5:52 PM)
Average63 °F61%30.02 "Hg
* Reported Mar 15 5:52 PM — Mar 30 5:52 PM, Abilene, Weather by CustomWeather, © 2015

Note: Actual official high and low records may vary slightly from our data, if they occured in-between our weather recording intervals... More about our weather records

Advertising

Abilene weather history for previous 24 hours

 ConditionsComfort  
Time TempWeatherWind HumidityBarometerVisibility
5:52 PM
Mon, Mar 30
82 °FSunny.12 mph38%29.98 "Hg10 mi
4:52 PM81 °FSunny.3 mph39%30.00 "Hg10 mi
3:52 PM81 °FSunny.5 mph41%30.03 "Hg10 mi
2:52 PM79 °FSunny.3 mph44%30.07 "Hg10 mi
1:52 PM77 °FSunny.3 mph47%30.10 "Hg10 mi
12:52 PM71 °FSunny.No wind53%30.14 "Hg10 mi
11:52 AM67 °FSunny.No wind53%30.16 "Hg10 mi
10:52 AM63 °FSunny.6 mph54%30.16 "Hg10 mi
9:52 AM59 °FSunny.7 mph60%30.15 "Hg10 mi
8:52 AM55 °FSunny.3 mph72%30.15 "Hg10 mi
7:52 AM51 °FClear.3 mph77%30.13 "Hg10 mi
6:52 AM53 °FClear.5 mph74%30.10 "Hg10 mi
5:52 AM52 °FClear.5 mph77%30.09 "Hg10 mi
4:52 AM55 °FClear.5 mph69%30.07 "Hg10 mi
3:52 AM57 °FClear.No wind64%30.06 "Hg10 mi
2:52 AM56 °FClear.8 mph67%30.08 "Hg10 mi
1:52 AM61 °FClear.3 mph56%30.08 "Hg10 mi
12:52 AM60 °FClear.7 mph58%30.07 "Hg10 mi
11:52 PM
Sun, Mar 29
63 °FClear.7 mph54%30.07 "Hg10 mi
10:52 PM65 °FClear.7 mph54%30.08 "Hg10 mi
9:52 PM67 °FClear.7 mph55%30.06 "Hg10 mi
8:52 PM72 °FSunny.9 mph44%30.03 "Hg10 mi
7:52 PM75 °FSunny.15 mph37%29.99 "Hg10 mi
Weather by CustomWeather, © 2015

See weather overviewHow to use our weather pages